Showing default

ORBCOMM FM 7, 25119

Orbit data source: Space-Track

ORBCOMM FM 7, 25119 is a payload satellite owned by Orbcomm (US) in LEO that was launched on Tue, 23 Dec 1997 UTC via a PEGASUS XL/HAPS launch vehicle from the Pegasus Launch, Eastern Range Air Space (ERAS). Payload-class satellites include a variety of spacecraft equipped with specific instruments for various scientific and technological missions. These include communications satellites like Starlink; space stations such as the ISS; scientific satellites like the Hubble; Earth observation satellites from companies like Planet Labs, Umbra, and HawkEye 360; GPS; miniature CubeSats for education and research; and military/defense satellites.

Loading next visibility...
Identifier
25119, 1997-084H
Orbit
LEO
Country
Flag of USUS / ORB
Related business
Manufacturer
OSC-Germantown
Mission
Non-operational Commercial Communications
Bus & Motor
MICROSTAR, Unknown motor
Mass
42 kg wet, 42 kg dry
Launch date (UTC)
1997-12-23 (28 years ago)
Launch vehicle
PEGASUS XL/HAPS
Launch site
Pegasus Launch, Eastern Range Air Space (ERAS)
Object type
Payload
Rocket body
Debris
Shape & HBR
Cyl + 2 Pan, 4.2 m
Radar Cross Section
1.484 m², Medium (>0.1 m² and < 1m²)

Expand to show TLE details & history
Last TLE update: 2 days ago

TLE from 2 days ago
0 ORBCOMM FM 7
1 25119U 97084H   26171.31687679  .00000814  00000-0  25817-3 0  9999
2 25119  45.0144  38.3794 0002397 297.9596  62.1014 14.47576321494832
Epoch: 2026-06-20T07:36Z
TLE epoch observation values (Epoch: 2026-06-20T07:36:18.154Z)
Latitude
0.00002°
Longitude
15.77054°
Altitude
732.779 km
Speed
7.491 km/s
True Right ascension
02h 33m 31s
True Declination
0° 00' 00"
Sunlit
Object was in daylight at epoch
Visualization orbit readout
Latitude
Unknown
Longitude
Unknown
Altitude
Unknown
Speed
Unknown
Apparent Right ascension
Unknown
Apparent Declination
Unknown
Sunlit
N/A
Visualization observer readout
Local Sidereal Time
00:39:45
Azimuth
Unknown
Elevation
Unknown
Doppler factor
Unknown
Orbital elements
Apogee altitude
736.831 km
Perigee altitude
733.421 km
Semi-major axis
7,113.263 km
Eccentricity
0.00024
Inclination
45.0144°
RAAN
38.3794°
Arg. of periapsis
297.9596°
True anomaly
62.12568°
Mean anomaly
62.1014°
Eccentric anomaly
62.11354°
Mean motion
3.61776 °/min
Orbital period
99.51 mins
BSTAR
0.00025817
Loading maneuver chart data...
Computing Atmospheric mass density...

Documentation

Showing up to 5 results
|